Vorticity
nan nan nan nan nan nan nan nan nan nan nan nan nan nan nan nan nan nan nan nan nan nan nan nan nan nan nan nan nan nan nan nan nan nan nan nan nan nan nan nan nan nan nan nan nan
nan 7 7 7 7 7 7 7 7 7 7 7 6 7 6 12 16 16 15 12 11 2 6 4 5 6 8 6 8 5 11 12 13 13 1 7 8 9 11 6 6 10 11 10 nan
nan 7 7 7 7 7 7 8 7 7 7 7 7 7 8 12 15 19 13 8 4 -1 4 4 6 5 9 7 1 5 18 9 5 18 10 8 7 7 6 10 9 11 6 4 nan
nan 7 7 7 7 8 8 8 7 9 7 7 7 7 12 13 13 12 15 9 5 1 -0 4 10 15 2 12 7 6 11 12 9 6 10 7 10 4 -1 17 18 10 8 5 nan
nan 7 7 7 8 8 8 8 8 8 8 8 7 10 16 8 9 14 10 8 6 5 4 4 1 13 11 14 12 9 7 7 7 7 6 9 5 5 11 11 16 13 7 5 nan
nan 7 7 8 8 8 9 8 8 8 9 8 8 11 11 13 11 11 7 3 7 6 7 4 -2 -2 14 10 13 11 7 7 6 6 5 6 5 6 9 11 11 7 6 5 nan
nan 8 8 9 9 9 9 8 9 9 10 9 10 9 11 13 14 9 4 3 3 9 3 6 4 2 12 9 5 8 5 2 7 2 8 9 -3 11 11 7 6 5 5 6 nan
nan 8 9 10 9 9 9 9 10 13 12 12 10 6 15 11 12 8 3 5 3 8 3 5 10 8 13 9 7 7 -2 9 10 2 8 -0 7 17 9 4 7 6 6 7 nan
nan 9 9 10 10 10 8 11 17 17 13 11 7 7 7 12 15 7 5 6 7 7 6 6 8 12 12 5 9 1 11 15 2 8 3 4 16 7 8 6 7 8 7 7 nan
nan 10 8 9 10 9 11 15 16 17 11 3 9 14 11 16 12 5 6 6 9 8 9 4 6 14 9 16 0 6 18 -4 8 15 -1 11 7 11 8 5 6 10 8 7 nan
nan 9 8 10 10 11 17 15 13 10 3 11 13 9 16 13 10 8 8 3 0 2 12 9 9 6 11 14 14 6 -1 6 2 5 5 17 10 5 7 8 7 9 9 6 nan
nan 9 9 11 10 15 13 5 2 17 14 6 2 15 18 5 5 10 4 1 2 15 10 6 8 5 10 4 5 12 4 11 9 -0 10 8 9 9 9 9 8 9 8 9 nan
nan 11 10 10 15 19 8 8 4 12 15 16 7 13 10 2 6 9 3 4 4 7 -1 5 5 13 10 8 10 18 -3 4 9 9 10 3 16 12 12 11 10 8 10 10 nan
nan 12 9 12 16 14 12 2 8 10 16 16 10 13 9 6 16 10 6 3 5 -1 10 9 1 7 10 7 11 11 9 16 8 -1 6 13 14 13 15 13 11 8 8 9 nan
nan 14 14 7 11 11 3 8 11 9 17 13 10 6 10 5 11 15 7 -1 -1 9 4 10 14 4 3 8 20 4 8 7 11 7 9 21 -9 16 15 13 15 14 11 8 nan
nan 17 17 11 6 8 7 10 11 6 14 11 8 7 7 8 -3 11 8 3 5 7 13 4 1 9 4 3 9 7 10 7 7 10 5 4 14 16 6 17 14 18 14 12 nan
nan 23 8 5 14 6 9 10 7 10 12 14 10 11 6 8 3 6 11 6 6 3 11 6 15 -2 4 9 4 4 3 9 5 6 13 17 21 9 15 4 9 11 14 16 nan
nan 23 8 7 11 10 11 6 4 14 10 7 17 12 9 4 9 6 6 6 4 1 7 10 7 16 11 5 3 3 8 14 6 4 10 -4 4 11 19 10 9 9 7 12 nan
nan 18 11 10 8 11 10 5 9 3 7 13 9 11 11 4 11 8 4 11 14 14 -3 2 15 18 -0 8 9 8 11 -2 8 10 7 6 12 12 5 2 4 6 9 11 nan
nan 10 10 8 8 9 6 9 8 9 9 13 11 14 9 8 4 8 9 10 11 6 12 11 12 1 7 13 6 8 10 20 9 4 7 14 14 9 18 15 6 5 8 11 nan
nan 8 9 8 8 10 7 14 11 6 9 9 10 10 11 12 12 9 6 9 15 7 9 12 13 10 12 5 8 13 10 3 2 7 8 12 11 17 11 12 15 7 5 8 nan
nan 14 8 10 7 8 14 5 8 12 8 6 7 8 17 13 11 10 9 19 8 10 14 13 12 12 10 8 5 2 4 9 14 13 7 3 3 11 13 12 10 9 7 6 nan
nan 13 11 7 12 8 10 10 6 14 6 9 8 10 9 11 11 10 12 14 9 8 11 16 14 10 14 10 9 3 8 12 7 7 6 6 12 15 7 8 8 9 7 7 nan
nan 13 9 8 10 10 9 14 11 8 8 8 10 11 8 11 7 7 13 2 3 7 6 11 8 7 4 3 12 12 4 5 12 9 10 11 14 13 7 8 5 10 10 8 nan
nan 7 10 14 7 8 12 8 13 15 11 8 11 4 10 11 8 9 10 9 12 9 -1 2 4 8 6 8 6 8 8 10 6 8 6 3 16 23 16 10 10 9 11 10 nan
nan 11 9 13 6 9 14 5 6 13 11 10 6 7 14 14 11 11 12 10 10 9 4 5 11 11 11 15 10 8 5 9 20 14 14 15 17 7 13 11 11 9 7 8 nan
nan nan nan nan nan nan nan nan nan nan nan nan nan nan nan nan nan nan nan nan nan nan nan nan nan nan nan nan nan nan nan nan nan nan nan nan nan nan nan nan nan nan nan nan nan
CAPE
0 2 1 2 1 0 1 2 1 1 2 1 0 0 0 0 0 0 0 0 33 1124 901 1008 926 1173 917 1205 1196 884 1009 449 365 282 485 419 436 332 238 167 119 220 378 315 201
1 1 1 2 1 0 1 2 1 1 1 0 0 0 0 0 0 0 0 715 262 1177 850 875 1125 1184 1307 1152 1078 843 169 181 368 294 478 403 417 175 217 145 147 156 254 202 155
1 1 1 2 2 1 2 2 0 1 0 0 0 0 0 0 0 0 969 697 1105 922 824 1093 1434 1422 829 959 401 271 373 172 306 253 281 322 416 156 163 298 147 179 199 142 122
1 1 1 1 1 1 1 1 0 1 0 0 0 0 0 0 0 0 1314 851 965 805 937 655 477 1124 563 389 315 467 104 143 186 180 207 276 77 127 217 265 212 175 142 103 104
1 1 1 1 1 0 1 1 2 1 0 0 0 0 0 0 0 0 1403 594 123 857 945 765 542 562 448 236 332 140 88 131 174 151 121 152 130 174 321 130 245 204 117 82 77
2 2 1 1 1 1 1 1 1 0 0 0 0 0 0 0 0 0 33 86 585 1032 466 589 711 501 525 347 295 83 201 125 229 228 218 216 389 462 257 150 161 152 160 97 50
5 3 1 1 1 2 0 1 0 0 0 0 0 0 0 0 0 0 111 452 810 503 291 336 871 832 445 227 157 90 179 283 271 265 224 254 216 473 440 224 255 218 241 157 103
5 2 1 1 4 1 1 0 0 0 0 0 0 0 0 0 0 2 334 586 655 438 400 677 581 565 553 439 275 149 78 104 200 231 159 258 221 587 530 504 423 338 308 263 125
4 4 2 2 0 1 0 0 0 0 0 0 0 0 48 0 0 52 139 412 643 657 544 305 686 557 252 347 261 256 29 92 192 219 268 210 464 734 597 592 497 400 404 343 262
2 2 2 0 2 0 0 0 0 0 0 0 0 0 0 59 171 286 51 429 619 565 440 619 636 513 285 448 220 234 103 104 198 140 138 264 177 545 773 455 403 332 405 345 340
4 2 0 1 2 0 0 0 0 0 0 0 0 0 209 220 158 72 203 483 479 643 714 347 559 162 203 202 233 352 191 149 226 295 269 317 398 462 795 716 436 340 320 341 289
2 2 1 1 0 0 0 0 0 0 0 0 0 26 410 255 249 219 598 742 886 657 382 273 193 221 140 157 180 260 227 279 479 368 486 377 540 464 563 793 721 569 389 287 275
1 3 1 0 0 0 0 0 0 0 0 0 0 37 607 584 565 655 774 962 807 284 194 470 469 266 284 249 314 253 301 276 165 813 772 743 799 652 595 617 683 614 528 393 275
3 2 1 0 0 0 0 0 0 0 0 0 0 3 625 529 745 643 730 930 695 627 524 486 564 176 248 190 95 59 218 110 314 362 518 1290 573 463 427 541 621 698 646 505 451
4 3 1 3 0 0 0 0 0 0 0 0 0 0 10 102 168 909 883 968 668 586 650 432 487 386 277 99 79 165 238 331 293 286 338 609 252 404 220 383 570 680 723 655 502
4 1 0 0 0 0 0 0 0 0 0 0 0 0 0 76 1 54 941 833 732 688 659 501 532 597 406 273 218 182 396 431 380 303 295 336 607 170 18 334 225 480 627 798 734
1 0 1 0 0 0 0 0 0 0 0 0 0 0 0 0 0 1 337 740 830 605 620 676 673 629 460 437 486 467 464 499 416 360 488 225 527 317 36 186 453 665 672 818 915
0 0 0 0 0 0 0 0 0 0 0 0 0 0 0 0 0 0 120 423 658 599 413 392 348 559 323 155 354 295 603 430 504 349 263 176 62 617 463 628 1118 1128 1001 1036 1156
0 0 0 0 0 0 0 0 0 0 0 0 0 0 0 0 0 0 0 15 286 475 366 418 389 103 0 0 0 23 252 188 272 215 265 188 383 190 230 448 917 1233 1095 1305 1559
0 0 0 0 0 0 0 0 0 0 0 0 0 0 0 0 0 0 0 0 0 0 0 29 157 91 6 0 0 0 0 6 238 241 169 153 205 187 133 322 1353 1508 1344 1241 1373
0 0 0 0 0 0 0 0 0 0 0 0 0 0 0 0 0 0 0 0 0 0 0 0 0 0 0 0 0 0 0 0 0 0 34 16 107 233 223 545 1730 1651 1151 855 816
0 0 0 0 0 0 0 0 0 0 0 0 0 0 0 0 0 0 0 0 0 0 0 0 0 0 0 0 0 0 0 0 1 7 23 24 63 1017 1479 1807 1897 1218 765 518 510
0 0 0 0 0 0 0 0 0 0 0 0 0 0 0 0 0 0 0 0 0 0 0 0 0 0 1 0 0 0 0 0 0 0 1 15 42 1391 1547 1484 1552 1035 687 372 248
0 0 0 0 0 0 0 0 0 0 0 0 0 0 0 0 0 0 0 0 0 0 0 0 0 0 0 2 0 3 0 0 2 3 5 10 15 1300 1062 1558 964 1023 642 335 254
0 0 0 0 0 0 0 0 0 0 0 0 0 0 0 0 0 0 0 0 0 0 0 0 0 0 0 0 0 0 0 0 0 0 15 8 0 884 1257 1519 1297 1172 928 949 935
0 0 0 0 0 0 0 0 0 0 0 0 0 0 0 0 0 7 20 18 11 17 0 0 8 0 0 0 0 0 0 0 1 0 8 13 6 1389 1532 1817 1293 1210 935 917 892
0 0 0 0 0 0 0 0 0 0 0 0 0 0 2 4 0 0 0 0 0 0 0 0 4 33 15 19 20 25 6 2 6 3 50 42 1182 1191 1541 1606 1465 1297 1126 1198 1083